OSCAR 7 (AO-7)

Last updated on Wed Sep 17 2025 00:03:09 GMT+0000 (Coordinated Universal Time)

1 07530U 74089B 25259.52878332 -.00000031 00000+0 94737-4 0 9992 2 07530 101.9985 264.8598 0011931 294.4389 185.3186 12.53691542326221
UTC large
Height (km)
Speed (km/s)
/
Latitude / Longitude
Inclination (degrees)
Orbital Period (minutes)
Azimuth
Elevation
Range (km)
Doppler Factor

Next 0 passes for location: London (51.5072 / 0.1276)

Sorry there are no passes over London.